4XCWR LLMG-LLHA

Flight info

Callsign 4XCWR
Flight time 0h 12m
Altitude 1000
Route CVFR
Aircraft C172/L-S/C

Departure

Time 2026-04-25 12:17
Airport Megiddo Airport (LLMG)

Arrival

Time 2026-04-25 12:30
Airport Uri Michaeli Haifa International Airport (LLHA)
Time Latitude Longitude Altitude Speed Heading
2026-04-25 12:13 32.59748 35.23374 186 ft 0 kts 75°
2026-04-25 12:15 32.59749 35.23382 191 ft 1 kts 86°
2026-04-25 12:15 32.59735 35.23399 197 ft 5 kts 151°
2026-04-25 12:15 32.59711 35.23371 187 ft 3 kts 272°
2026-04-25 12:15 32.59711 35.23363 187 ft 0 kts 272°
2026-04-25 12:16 32.59711 35.23325 187 ft 12 kts 265°
2026-04-25 12:16 32.59710 35.23319 187 ft 0 kts 268°
2026-04-25 12:16 32.59698 35.23098 198 ft 50 kts 276°
2026-04-25 12:16 32.59726 35.22547 255 ft 76 kts 270°
2026-04-25 12:17 32.59731 35.21910 434 ft 79 kts 272°
2026-04-25 12:17 32.59714 35.21689 491 ft 81 kts 261°
2026-04-25 12:17 32.59357 35.21170 682 ft 86 kts 231°
2026-04-25 12:17 32.58900 35.20703 896 ft 85 kts 227°
2026-04-25 12:18 32.58402 35.20211 909 ft 100 kts 227°
2026-04-25 12:18 32.57883 35.19734 1084 ft 93 kts 227°
2026-04-25 12:18 32.57450 35.19208 1366 ft 85 kts 242°
2026-04-25 12:18 32.57189 35.18612 1558 ft 79 kts 265°
2026-04-25 12:19 32.57381 35.17507 1832 ft 84 kts 281°
2026-04-25 12:19 32.57470 35.16523 2013 ft 99 kts 270°
2026-04-25 12:19 32.57392 35.15681 2009 ft 103 kts 267°
2026-04-25 12:20 32.57326 35.14869 2196 ft 97 kts 275°
2026-04-25 12:20 32.57503 35.14057 2242 ft 101 kts 285°
2026-04-25 12:20 32.57697 35.13271 2401 ft 104 kts 286°
2026-04-25 12:20 32.57936 35.12465 2603 ft 105 kts 291°
2026-04-25 12:21 32.58247 35.11669 2700 ft 107 kts 299°
2026-04-25 12:21 32.58711 35.10896 2530 ft 124 kts 315°
2026-04-25 12:21 32.59308 35.10204 2565 ft 114 kts 311°
2026-04-25 12:21 32.59838 35.09472 2533 ft 118 kts 308°
2026-04-25 12:22 32.60369 35.08730 2588 ft 117 kts 313°
2026-04-25 12:22 32.60965 35.08119 2743 ft 107 kts 318°
2026-04-25 12:22 32.61537 35.07569 2836 ft 107 kts 323°
2026-04-25 12:22 32.62191 35.07227 2916 ft 107 kts 356°
2026-04-25 12:23 32.62953 35.07289 3005 ft 112 kts
2026-04-25 12:23 32.63713 35.07394 3152 ft 107 kts
2026-04-25 12:23 32.64472 35.07407 3239 ft 107 kts 356°
2026-04-25 12:23 32.65224 35.07338 3316 ft 110 kts 353°
2026-04-25 12:24 32.66059 35.07231 3201 ft 126 kts 356°
2026-04-25 12:24 32.66914 35.07257 3247 ft 122 kts
2026-04-25 12:24 32.67770 35.07293 3177 ft 127 kts
2026-04-25 12:24 32.68661 35.07380 3050 ft 125 kts
2026-04-25 12:25 32.69521 35.07433 2914 ft 123 kts
2026-04-25 12:25 32.70307 35.07500 2731 ft 116 kts
2026-04-25 12:25 32.71079 35.07647 2443 ft 110 kts 11°
2026-04-25 12:25 32.71811 35.07889 2195 ft 106 kts 11°
2026-04-25 12:26 32.72542 35.08116 1725 ft 112 kts
2026-04-25 12:26 32.73278 35.08239 1329 ft 100 kts
2026-04-25 12:26 32.73965 35.08308 1085 ft 98 kts 358°
2026-04-25 12:26 32.74636 35.08216 1260 ft 93 kts 338°
2026-04-25 12:27 32.75220 35.07894 1344 ft 91 kts 327°
2026-04-25 12:27 32.75759 35.07490 1395 ft 92 kts 322°
2026-04-25 12:27 32.76288 35.07045 1427 ft 96 kts 323°
2026-04-25 12:27 32.76866 35.06529 1178 ft 109 kts 322°
2026-04-25 12:28 32.77405 35.06076 972 ft 78 kts 324°
2026-04-25 12:28 32.77826 35.05748 791 ft 74 kts 329°
2026-04-25 12:28 32.78286 35.05447 570 ft 74 kts 334°
2026-04-25 12:28 32.78759 35.05223 409 ft 72 kts 340°
2026-04-25 12:29 32.79217 35.05047 373 ft 68 kts 339°
2026-04-25 12:29 32.79670 35.04897 253 ft 63 kts 344°
2026-04-25 12:29 32.80063 35.04752 134 ft 60 kts 343°
2026-04-25 12:29 32.80460 35.04606 45 ft 60 kts 341°
2026-04-25 12:30 32.80818 35.04456 21 ft 49 kts 341°
2026-04-25 12:30 32.81230 35.04278 70 ft 74 kts 338°
2026-04-25 12:30 32.81737 35.04053 242 ft 81 kts 339°
2026-04-25 12:30 32.82298 35.03827 452 ft 90 kts 342°
2026-04-25 12:31 32.82832 35.04044 731 ft 97 kts 34°
2026-04-25 12:31 32.83324 35.04688 788 ft 110 kts 75°
2026-04-25 12:31 32.82927 35.05481 823 ft 120 kts 134°
2026-04-25 12:31 32.82247 35.06096 817 ft 126 kts 144°
2026-04-25 12:32 32.81553 35.06654 762 ft 116 kts 148°
2026-04-25 12:32 32.81092 35.06963 694 ft 114 kts 155°
2026-04-25 12:32 32.80355 35.07341 641 ft 116 kts 162°
2026-04-25 12:32 32.79293 35.07623 668 ft 114 kts 191°
2026-04-25 12:33 32.78816 35.07402 736 ft 110 kts 218°
2026-04-25 12:33 32.78139 35.06900 767 ft 119 kts 223°
2026-04-25 12:33 32.77647 35.06219 784 ft 91 kts 269°
2026-04-25 12:33 32.78023 35.05652 720 ft 95 kts 330°
2026-04-25 12:34 32.78566 35.05396 584 ft 72 kts 338°
2026-04-25 12:34 32.78998 35.05212 450 ft 67 kts 338°
2026-04-25 12:34 32.79443 35.05043 290 ft 68 kts 340°
2026-04-25 12:34 32.79750 35.04925 197 ft 65 kts 341°
2026-04-25 12:35 32.80243 35.04710 85 ft 54 kts 340°
2026-04-25 12:35 32.80578 35.04566 26 ft 45 kts 339°
2026-04-25 12:35 32.80826 35.04459 21 ft 33 kts 342°
2026-04-25 12:35 32.81007 35.04380 22 ft 24 kts 340°
2026-04-25 12:36 32.81137 35.04322 22 ft 14 kts 340°
2026-04-25 12:36 32.81167 35.04267 22 ft 2 kts 250°
2026-04-25 12:36 32.81154 35.04229 21 ft 5 kts 251°
2026-04-25 12:36 32.81135 35.04205 21 ft 6 kts 165°
2026-04-25 12:37 32.81130 35.04229 21 ft 3 kts 46°
2026-04-25 12:37 32.81136 35.04230 21 ft 0 kts 338°